カタログに戻る

STARLINK-37679

運用中通信SSO
NORAD 69229·PAYLOAD·🇺🇸 United States

打ち上げ May 26, 2026 から Vandenberg Space Force Base

Loading…

次のパス (今後24時間)

TLE

最新Source: CelesTrak SupGP

元期: Sep 14, 2026, 23:04 UTC

1 69229C 26115U   26257.96159722  .00039094  00000+0  12135-2 0  2571
2 69229  97.2834 274.1653 0001634  93.2258 268.9320 15.33420377    10

AllMySatでSTARLINK-37679をリアルタイム追跡

Download on the App Store